User: anonymous   Login
Location: STAR School
(35.3054°N, 111.2976°W)
Time: 04:44:39
(UTC-07:00)
Language:

PicSat - Orbit

View from above orbital plane
View from above orbital plane
View from above satellite
View from above satellite

Ground track
Ground track

The orbit data is extracted from the following two-line orbital elements,

1 43131U 18004W   19115.18164836  .00001926  00000-0  82629-4 0  9998
2 43131  97.4930 183.2760 0011199  86.7444 273.5074 15.23912978 71213
Epoch (UTC): 25 April 2019 04:21:34
Eccentricity: 0.0011199
inclination: 97.4930°
perigee height: 486 km
apogee height: 502 km
right ascension of ascending node: 183.2760°
argument of perigee: 86.7444°
revolutions per day: 15.23912978
mean anomaly at epoch: 273.5074°
orbit number at epoch: 7121

The dashed part of the orbit path shows where the satellite is in the earth's shadow,  

DLR